Skip Page Navigation
NASA JPL Caltech
NASA Logo - Jet Propulsion Laboratory + View the NASA Portal
+ Center for Near-Earth Object Studies
JPL Home Earth Solar System Stars & Galaxies Technology
JPL Solar System Dynamics
BODIES ORBITS EPHEMERIDES TOOLS PHYSICAL DATA DISCOVERY FAQ SITE MAP
IMPORTANT: The SSD Announcement email list is now available. Major changes are coming in the near future, including possible hostname and/or URL changes. To be notified of such changes, subscribe to this email list.

Please visit this page for more details.


JPL Small-Body Database Browser
Search: [ help ]  
347539 (2000 AQ24)
Classification: Main-belt Asteroid          SPK-ID: 2347539
Ephemeris | Orbit Diagram | Orbital Elements | Mission Design | Physical Parameters | Discovery Circumstances | Close-Approach Data ]

[ show orbit diagram ]
Orbital Elements at Epoch 2459000.5 (2020-May-31.0) TDB
Reference: JPL 7 (heliocentric ecliptic J2000)
 Element Value Uncertainty (1-sigma)   Units 
e .2734459110538645 7.2571e-08  
a 2.63560190808556 2.1206e-08 au
q 1.9149073431538 1.9533e-07 au
i 9.278999946438503 1.0119e-05 deg
node 101.2834777730342 4.0687e-05 deg
peri 24.2323821768497 4.409e-05 deg
M 263.0797857494122 1.6543e-05 deg
tp 2459421.255703343988
(2021-Jul-25.75570334)
7.5218e-05 TDB
period 1562.85305779663
4.28
1.8862e-05
5.164e-08
d
yr
n .2303479512703144 2.7801e-09 deg/d
Q 3.356296473017319 2.7005e-08 au
  Orbit Determination Parameters
   # obs. used (total)      172  
   data-arc span      6764 days (18.52 yr)  
   first obs. used      2000-01-03  
   last obs. used      2018-07-11  
   planetary ephem.      DE431  
   SB-pert. ephem.      SB431-N16  
   condition code      0  
   norm. resid. RMS      .52953  
   source      ORB  
   producer      Otto Matic  
   solution date      2019-Jul-13 13:40:25  

Additional Information
 Earth MOID = .934645 au 
 Jupiter MOID = 1.75038 au 
 T_jup = 3.325 
[ show covariance matrix ]

Ephemeris | Orbit Diagram | Orbital Elements | Mission Design | Physical Parameters | Discovery Circumstances | Close-Approach Data ]

Physical Parameter Table
Parameter Symbol Value Units Sigma Reference Notes
absolute magnitude H 16.6   n/a MPO450309  

347539 (2000 AQ24)          Discovered 2000-Jan-03 by LINEAR at Socorro
Reference: 20121228/Numbers.arcLast Updated: 2013-01-02

[ show close-approach data ]
Alternate Designations
 2000 AQ24 = 2005 LR27 
Ephemeris | Orbit Diagram | Orbital Elements | Mission Design | Physical Parameters | Discovery Circumstances | Close-Approach Data ]
ABOUT SSD CREDITS/AWARDS PRIVACY/COPYRIGHT GLOSSARY LINKS
FirstGov 2020-Feb-24 00:49 UT
(server date/time)  
NASA Home Page
Site Manager:   Ryan S. Park
Webmaster  Alan B. Chamberlin